cartamaior.com.br alexa rank chart, cartamaior.com.br alexa rank daily changes

cartamaior.com.br alexa rank chart, cartamaior.com.br alexa rank daily changes

cartamaior.com.br
Actual rank:
168 220

RANK HISTORY

Date Rank Diff
2017/01/22 168 220 +3 497
2017/01/21 164 723 +2 028
2017/01/20 162 695 +6 804
2017/01/19 155 891 +3 345
2017/01/18 152 546 +2 319
2017/01/17 150 227 +4 539
2017/01/16 145 688 +5 827
2017/01/15 139 861 +4 777
2017/01/14 135 084 +1 717
2017/01/13 133 367 +2 835
2017/01/12 130 532 +6 431
2017/01/11 124 101 +1 712
2017/01/10 122 389 +1 197
2017/01/09 121 192 +3 898
2017/01/08 117 294 +3 435
2017/01/07 113 859 +707
2017/01/06 113 152 +2 030
2017/01/05 111 122 +3 131
2017/01/04 107 991 +2 298
2017/01/03 105 693 +2 208
2017/01/02 103 485 +1 336
2017/01/01 102 149 +1 508
2016/12/31 100 641 +641
2016/12/30 100 000 +131
2016/12/29 99 869 +1 475
2016/12/28 98 394 +1 027
2016/12/27 97 367 +1 385
2016/12/26 95 982 +2 627
2016/12/25 93 355 +359
2016/12/24 92 996 -1 172
2016/12/23 94 168 -1 818
2016/12/22 95 986 -670
2016/12/21 96 656 -983
2016/12/20 97 639 -582
2016/12/19 98 221 +830
2016/12/18 97 391 +1 759
2016/12/17 95 632 -68
2016/12/16 95 700 -1 788
2016/12/15 97 488 -826
2016/12/14 98 314 -707
2016/12/13 99 021 -88
2016/12/12 99 109 -2 411
2016/12/11 101 520 +2 545
2016/12/10 98 975 +2 751
2016/12/09 96 224 -2 299
2016/12/08 98 523 -1 386
2016/12/07 99 909 +566
2016/12/06 99 343 -1 377
2016/12/05 100 720 -1 190
2016/12/04 101 910 -688
2016/12/02 102 598 -8
2016/12/01 102 606 -1 684
2016/11/30 104 290 +1 415
2016/11/29 102 875 -1 069
2016/11/28 103 944 -676
2016/11/27 104 620 -4 533
2016/11/26 109 153 +5 029
2016/11/25 104 124 +2 573
2016/11/24 101 551 +7 597
2016/11/23 93 954

WIDGET FOR YOUR SITE

DOMAINS WITH THE NEAREST RANK

Domain Rank
espace-famille.net 168 215
kashelb.com 168 216
team-thirdplace.com 168 217
waggishworld.com 168 218
starprivate.com 168 219
cartamaior.com.br 168 220
zhiyun-tech.com 168 221
conseils-thermiques.org 168 222
crodict.hr 168 223
rt521.com 168 224
bbclothing.co.uk 168 225

DOMAINS WITH THE NEAREST RANK BY TLD .com.br

Domain Rank
megajogos.com.br 167 824
acessosonline.com.br 167 972
montesuacasa.com.br 168 011
vivadecora.com.br 168 049
liberal.com.br 168 061
cartamaior.com.br 168 220
ortobom.com.br 168 255
douradosnews.com.br 168 330
zocprint.com.br 168 421
usinainfo.com.br 168 439
escolagames.com.br 168 827